Location: Lecco
(45.8566°N, 9.3977°E)
Time: 03:52:51
(UTC+02:00)

Tiros 1 despin weight - All Passes

Search period start: 20 August 2019 00:00
Search period end: 30 August 2019 00:00
Orbit: 594 x 642 km, 48.2° (Epoch: 19 August)

Date Brightness Start Highest point End Pass type
(mag) Time Alt. Az. Time Alt. Az. Time Alt. Az.
20 Aug - 01:47:38 10° SW 01:51:48 40° SSE 01:56:04 10° ENE visible
20 Aug - 03:28:43 10° W 03:33:13 78° NNW 03:37:49 10° ENE visible
20 Aug - 05:10:31 10° WNW 05:15:03 67° N 05:19:40 10° E visible
20 Aug - 06:52:09 10° WNW 06:56:41 62° SSW 07:01:17 10° SE daylight
20 Aug - 08:34:39 10° W 08:37:40 17° SW 08:40:40 10° S daylight
21 Aug - 00:24:25 10° S 00:27:21 17° SE 00:30:19 10° E night (unlit)
21 Aug - 02:03:53 10° SW 02:08:18 64° SSE 02:12:48 10° ENE visible
21 Aug - 03:45:27 10° W 03:49:56 66° N 03:54:31 10° ENE visible
21 Aug - 05:27:12 10° WNW 05:31:46 80° NNE 05:36:24 10° ESE visible
21 Aug - 07:08:54 10° W 07:13:10 39° SSW 07:17:29 10° SE daylight
22 Aug - 00:39:46 10° SSW 00:43:39 30° SE 00:47:35 10° E night (unlit)
22 Aug - 02:20:25 10° WSW 02:24:54 89° NNW 02:29:28 10° ENE visible
22 Aug - 04:02:11 10° W 04:06:40 64° N 04:11:15 10° E visible
22 Aug - 05:43:50 10° WNW 05:48:24 77° SSW 05:53:01 10° ESE visible
22 Aug - 07:25:53 10° W 07:29:33 23° SW 07:33:14 10° SSE daylight
22 Aug - 23:17:37 10° SSE 23:19:18 12° SE 23:21:01 10° ESE night (unlit)
23 Aug - 00:55:47 10° SW 01:00:04 49° SSE 01:04:26 10° ENE night (unlit)
23 Aug - 02:37:06 10° W 02:41:34 71° N 02:46:08 10° ENE visible
23 Aug - 04:18:53 10° WNW 04:23:25 71° N 04:28:00 10° E visible
23 Aug - 06:00:31 10° WNW 06:04:57 51° SSW 06:09:26 10° SE visible
23 Aug - 07:43:39 10° WSW 07:45:47 13° SW 07:47:56 10° SSW daylight
23 Aug - 23:32:07 10° S 23:35:32 22° SE 23:38:59 10° E night (unlit)
24 Aug - 01:12:10 10° WSW 01:16:36 76° SSE 01:21:07 10° ENE visible
24 Aug - 02:53:50 10° W 02:58:18 64° N 03:02:51 10° E visible
24 Aug - 04:35:33 10° WNW 04:40:06 88° NNE 04:44:43 10° ESE visible
24 Aug - 06:17:21 10° W 06:21:23 31° SW 06:25:28 10° SSE daylight
24 Aug - 23:47:48 10° SW 23:51:52 37° SSE 23:56:01 10° E night (unlit)
25 Aug - 01:28:46 10° WSW 01:33:14 80° NNW 01:37:46 10° ENE visible
25 Aug - 03:10:34 10° WNW 03:15:03 66° N 03:19:36 10° E visible
25 Aug - 04:52:12 10° WNW 04:56:42 66° SSW 05:01:15 10° ESE visible
25 Aug - 06:34:33 10° W 06:37:42 18° SW 06:40:53 10° S daylight
25 Aug - 22:24:48 10° S 22:27:27 16° SE 22:30:07 10° E night (unlit)
26 Aug - 00:03:59 10° SW 00:08:20 60° SSE 00:12:46 10° ENE night (unlit)
26 Aug - 01:45:30 10° W 01:49:56 67° N 01:54:28 10° ENE visible
26 Aug - 03:27:15 10° WNW 03:31:46 77° NNE 03:36:20 10° E visible
26 Aug - 05:08:55 10° WNW 05:13:12 42° SSW 05:17:31 10° SE visible
26 Aug - 22:39:58 10° SSW 22:43:43 27° SE 22:47:31 10° E night (unlit)
27 Aug - 00:20:29 10° WSW 00:24:55 87° SSE 00:29:26 10° ENE night (unlit)
27 Aug - 02:02:14 10° W 02:06:40 64° N 02:11:11 10° E visible
27 Aug - 03:43:54 10° WNW 03:48:25 81° SSW 03:52:59 10° ESE visible
27 Aug - 05:25:52 10° W 05:29:35 25° SW 05:33:20 10° SSE visible
27 Aug - 21:18:25 10° SE 21:19:24 11° SE 21:20:24 10° ESE visible
27 Aug - 22:55:54 10° SW 23:00:07 46° SSE 23:04:24 10° ENE visible
28 Aug - 00:37:09 10° W 00:41:36 73° N 00:46:06 10° ENE night (unlit)
28 Aug - 02:18:56 10° WNW 02:23:25 69° N 02:27:56 10° E visible
28 Aug - 04:00:34 10° WNW 04:04:58 54° SSW 04:09:26 10° SE visible
28 Aug - 05:43:27 10° WSW 05:45:50 14° SW 05:48:16 10° SSW visible
28 Aug - 21:32:23 10° S 21:35:37 20° SE 21:38:52 10° E visible
28 Aug - 23:12:15 10° WSW 23:16:38 72° SSE 23:21:05 10° ENE visible
29 Aug - 00:53:53 10° W 00:58:18 64° N 01:02:47 10° E night (unlit)
29 Aug - 02:35:36 10° WNW 02:40:06 85° NNE 02:44:40 10° ESE night (unlit)
29 Aug - 04:17:21 10° W 04:21:26 33° SW 04:25:32 10° SSE visible
29 Aug - 21:47:57 10° SSW 21:51:56 34° SE 21:55:58 10° E visible
29 Aug - 23:28:49 10° WSW 23:33:15 83° NNW 23:37:45 10° ENE visible
